Flag for San Marino Weather past 2 weeks in San Marino, San Marino

Now
88 °F

Sunny.


Feels Like: 96 °F
Forecast: 70 / 85 °F
Wind: 7 mph from Northeast

Location: Rimini Airport

Current Time: Jul 6, 2015 at 1:27:21 PM

Latest Report: Jul 6, 2015 at 12:45 PM


Visibility: 10 mi

Pressure: 30.07 "Hg (27.90 "Hg at 666m altitude)

Humidity: 62%

Dew point: 73 °F

Location of San MarinoLocation

Historic Weather in San Marino — Graph

°F

San Marino temperature yesterday

Maximum temperature yesterday: 86 °F (at 10:45 AM)
Minimum temperature yesterday: 72 °F (at 4:15 AM)
Average temperature yesterday: 81 °F

Past Weeks' High & Low Weather Summary

 TemperatureHumidityPressure
High90 °F (Jul 6, 11:45 AM)89% (Jul 6, 4:45 AM)30.24 "Hg (Jul 6, 4:45 AM)
Low57 °F (Jun 25, 5:45 AM)41% (Jun 21, 12:45 PM)29.74 "Hg (Jun 23, 1:45 PM)
Average75 °F68%30.07 "Hg
* Reported Jun 21 12:15 PM — Jul 6 12:15 PM, San Marino, Weather by CustomWeather, © 2015

Note: Actual official high and low records may vary slightly from our data, if they occured in-between our weather recording intervals... More about our weather records

Advertising

San Marino weather history for previous 24 hours

 ConditionsComfort  
Time TempWeatherWind HumidityBarometerVisibility
12:15 PM
Mon, Jul 6
90 °FSunny.6 mph63%30.07 "Hg10 mi
11:45 AM90 °FSunny.5 mph59%30.07 "Hg10 mi
11:15 AM88 °FSunny.No wind66%30.07 "Hg10 mi
10:45 AM86 °FSunny.5 mph66%30.04 "Hg10 mi
10:15 AM86 °FSunny.2 mph66%30.04 "Hg10 mi
9:45 AM86 °FSunny.1 mph70%30.04 "Hg10 mi
9:15 AM84 °FSunny.No wind70%30.04 "Hg10 mi
8:45 AM84 °FSunny.No wind70%30.04 "Hg10 mi
8:15 AM82 °FSunny.1 mph70%30.04 "Hg10 mi
7:45 AM81 °FSunny.No wind79%30.04 "Hg10 mi
7:15 AM77 °FSunny.No wind83%30.01 "Hg10 mi
6:45 AM75 °FSunny.2 mph89%30.01 "Hg10 mi
6:15 AM77 °FClear.2 mph83%30.01 "Hg10 mi
5:45 AM77 °FClear.3 mph83%30.01 "Hg10 mi
4:45 AM77 °FClear.No wind89%30.01 "Hg10 mi
4:15 AM77 °FClear.No wind83%30.01 "Hg10 mi
3:45 AM77 °FClear.1 mph83%30.01 "Hg10 mi
3:15 AM77 °FClear.2 mph83%30.04 "Hg10 mi
2:45 AM77 °FClear.3 mph83%30.04 "Hg10 mi
2:15 AM79 °FClear.No wind79%30.04 "Hg10 mi
1:15 AM81 °FClear.No wind74%30.04 "Hg10 mi
12:45 AM81 °FClear.No wind74%30.04 "Hg10 mi
12:15 AM81 °FClear.1 mph74%30.04 "Hg10 mi
11:45 PM
Sun, Jul 5
81 °FClear.2 mph74%30.04 "Hg10 mi
11:15 PM81 °FClear.1 mph74%30.04 "Hg10 mi
10:45 PM81 °FClear.3 mph70%30.04 "Hg10 mi
10:15 PM82 °FClear.1 mph66%30.04 "Hg10 mi
9:45 PM84 °FSunny.5 mph66%30.04 "Hg10 mi
9:15 PM84 °FSunny.5 mph66%30.04 "Hg10 mi
8:45 PM84 °FSunny.6 mph66%30.04 "Hg10 mi
8:15 PM84 °FSunny.7 mph66%30.01 "Hg10 mi
7:45 PM84 °FSunny.7 mph70%30.01 "Hg10 mi
7:15 PM84 °FSunny.9 mph70%30.01 "Hg10 mi
6:45 PM86 °FSunny.9 mph66%30.01 "Hg10 mi
6:15 PM86 °FSunny.10 mph62%30.04 "Hg10 mi
5:45 PM86 °FSunny.9 mph59%30.04 "Hg10 mi
5:15 PM84 °FSunny.10 mph66%30.07 "Hg10 mi
4:45 PM84 °FSunny.12 mph70%30.07 "Hg10 mi
4:15 PM84 °FSunny.13 mph70%30.07 "Hg10 mi
3:45 PM84 °FSunny.10 mph70%30.07 "Hg10 mi
3:15 PM86 °FSunny.12 mph66%30.07 "Hg10 mi
2:45 PM86 °FSunny.10 mph66%30.09 "Hg10 mi
2:15 PM86 °FSunny.10 mph66%30.09 "Hg10 mi
1:45 PM86 °FSunny.10 mph66%30.09 "Hg10 mi
1:15 PM86 °FSunny.8 mph59%30.09 "Hg10 mi
Weather by CustomWeather, © 2015

See weather overviewHow to use our weather pages